Home > Time Zones > World Clock > Weather > Iran > Rasht > Past weeks

Flag for Iran Weather past 2 weeks in Rasht, Iran

63 °F

Heavy rain. Mostly cloudy.

Feels Like: 63 °F
Forecast: 64 / 68 °F
Wind: 7 mph from West

Location: Rasht Airport

Current Time: Oct 9, 2015 at 5:36:24 AM

Latest Report: Oct 9, 2015 at 4:30 AM

Visibility: 1 mi

Pressure: 30.07 "Hg

Humidity: 100%

Dew point: 63 °F

Location of RashtLocation

Historic Weather in Rasht — Graph


Rasht temperature yesterday

Maximum temperature yesterday: 88 °F (at 1:30 AM)
Minimum temperature yesterday: 64 °F (at 6:30 PM)
Average temperature yesterday: 74 °F

Past Weeks' High & Low Weather Summary

High88 °F (Oct 8, 1:30 AM)100% (Sep 24, 4:30 AM)30.18 "Hg (Sep 24, 4:30 AM)
Low63 °F (Sep 26, 3:30 AM)27% (Oct 8, 1:30 AM)29.50 "Hg (Oct 8, 1:30 AM)
Average74 °F83%29.98 "Hg
* Reported Sep 24 4:30 AM — Oct 9 4:30 AM, Rasht, Weather by CustomWeather, © 2015

Note: Actual official high and low records may vary slightly from our data, if they occured in-between our weather recording intervals... More about our weather records


Rasht weather history for previous 24 hours

Time TempWeatherWind HumidityBarometerVisibility
4:30 AM
Fri, Oct 9
63 °FHeavy rain. Mostly cloudy.7 mph100%30.07 "Hg1 mi
3:30 AM63 °FRain. Mostly cloudy.7 mph100%30.07 "Hg1 mi
12:30 AM64 °FRain. Mostly cloudy.5 mph100%30.04 "Hg1 mi
11:30 PM
Thu, Oct 8
64 °FHeavy rain. Mostly cloudy.No wind100%30.04 "Hg1 mi
10:30 PM66 °FRain. Mostly cloudy.No wind100%30.04 "Hg1 mi
9:30 PM66 °FHeavy rain. Mostly cloudy.No wind100%30.04 "Hg1 mi
8:30 PM66 °FLight rain. Mostly cloudy.7 mph100%30.04 "Hg3 mi
8:00 PM66 °FThunderstorms. Mostly cloudy.5 mph100%30.04 "Hg2 mi
7:30 PM66 °FThunderstorms. Mostly cloudy.12 mph100%30.01 "Hg2 mi
7:00 PM64 °FThunderstorms. Overcast.12 mph100%29.95 "Hg1 mi
6:30 PM64 °FThunderstorms. Overcast.16 mph100%29.95 "Hg1 mi
6:00 PM66 °FStrong thunderstorms. Cloudy.23 mph100%29.92 "Hg0 mi
5:30 PM68 °FSprinkles. More clouds than sun.18 mph94%29.89 "Hg1 mi
5:00 PM70 °FFog.12 mph88%29.86 "Hg3 mi
4:30 PM72 °FFog.16 mph83%29.86 "Hg3 mi
4:00 PM73 °FFog.12 mph83%29.86 "Hg3 mi
3:30 PM73 °FMore clouds than sun.14 mph83%29.86 "Hg4 mi
3:00 PM73 °FMore clouds than sun.12 mph83%29.86 "Hg4 mi
2:30 PM73 °FLight rain. More clouds than sun.18 mph83%29.86 "Hg4 mi
2:00 PM75 °FMore clouds than sun.7 mph83%29.83 "Hg5 mi
1:30 PM75 °FLight rain. More clouds than sun.9 mph83%29.83 "Hg5 mi
1:00 PM77 °FMore clouds than sun.12 mph74%29.80 "HgN/A
12:30 PM77 °FMore clouds than sun.12 mph74%29.77 "HgN/A
12:00 PM77 °FMore clouds than sun.12 mph74%29.74 "Hg5 mi
11:30 AM81 °FBroken clouds.14 mph74%29.71 "HgN/A
11:00 AM82 °FBroken clouds.9 mph74%29.68 "HgN/A
10:30 AM82 °FBroken clouds.12 mph74%29.65 "HgN/A
10:00 AM81 °FPartly sunny.5 mph79%29.65 "HgN/A
9:30 AM81 °FPartly sunny.5 mph79%29.65 "HgN/A
9:00 AM79 °FPartly sunny.5 mph89%29.62 "Hg4 mi
8:30 AM79 °FPartly sunny.No wind89%29.62 "Hg4 mi
8:00 AM75 °FFog.No wind100%29.59 "Hg3 mi
7:30 AM73 °FFog.5 mph100%29.59 "Hg3 mi
7:00 AM70 °FFog.5 mph94%29.56 "Hg3 mi
6:30 AM70 °FFog.No wind94%29.56 "Hg3 mi
6:00 AM72 °FClear.No wind94%29.53 "Hg10 mi
5:30 AM72 °FClear.No wind94%29.53 "Hg10 mi
Weather by CustomWeather, © 2015

See weather overviewHow to use our weather pages